Location: Boiro
(42.6475°N, 8.8834°W)
Time: 03:02:11
(UTC+01:00)

Vanguard 3 - Pass Details

Date: 09 December 2021
Orbit: 508 x 3260 km, 33.3° (Epoch: 19 January)

Event Time Altitude Azimuth Distance (km) Brightness Sun altitude
Exits shadow 01:36:51 13° 95° (E) 5,919 11.4 -70.1°
Drops below altitude 10° 01:38:49 10° 91° (E) 6,201 11.6 -70.0°
Sets 01:44:57 0° 80° (E) 7,155 12.1 -69.9°
